User: anonymous   Login
Location: Unspecified
(0.0000°N, 0.0000°E)
Time: 09:23:32
(UTC+00:00)
Language:

COSMOS 2391 - Orbit

View from above orbital plane
View from above orbital plane
View from above satellite
View from above satellite

Ground track
Ground track

The orbit data is extracted from the following two-line orbital elements,

1 27465U 02036B   18147.76072992 +.00000010 +00000-0 +15233-5 0  9998
2 27465 082.4860 022.3988 0024945 211.0460 148.9145 12.44882201721963
Epoch (UTC): 27 May 2018 18:15:27
Eccentricity: 0.0024945
inclination: 82.4860°
perigee height: 1466 km
apogee height: 1505 km
right ascension of ascending node: 22.3988°
argument of perigee: 211.0460°
revolutions per day: 12.44882201
mean anomaly at epoch: 148.9145°
orbit number at epoch: 72196

The dashed part of the orbit path shows where the satellite is in the earth's shadow,  

DLR